• In Kazakhstan
  • List of Countries
  • For 7 days
  • Water Temperature
  • Weather Map
  • News
  • Weather Widgets
  • user-avatar
    Login

    Hourly Weather Gabrovo

    Today, 15 October, Tuesday

    Time Temperature Precipitation Wind Pressure Humidity
    00:00 +13°C° 0 mm 1 mps 704 mmHg 50%
    01:00 +13°C° 0 mm 1 mps 704 mmHg 52%
    02:00 +12°C° 0 mm 0 mps 704 mmHg 53%
    03:00 +11°C° 0 mm 0 mps 704 mmHg 54%
    04:00 +11°C° 0 mm 0 mps 704 mmHg 54%
    05:00 +11°C° 0 mm 0 mps 704 mmHg 55%
    06:00 +12°C° 0 mm 0 mps 704 mmHg 52%
    07:00 +13°C° 0 mm 0 mps 704 mmHg 50%
    08:00 +14°C° 0 mm 0 mps 704 mmHg 47%
    09:00 +16°C° 0 mm 0 mps 705 mmHg 41%
    10:00 +21°C° 0 mm 1 mps 705 mmHg 36%
    11:00 +23°C° 0 mm 1 mps 705 mmHg 30%
    12:00 +24°C° 0 mm 1 mps 705 mmHg 28%
    13:00 +25°C° 0 mm 1 mps 705 mmHg 26%
    14:00 +25°C° 0 mm 2 mps 705 mmHg 24%
    15:00 +24°C° 0 mm 2 mps 704 mmHg 28%
    16:00 +21°C° 0 mm 2 mps 703 mmHg 33%
    17:00 +21°C° 0 mm 1 mps 703 mmHg 37%
    18:00 +19°C° 0 mm 1 mps 703 mmHg 40%
    19:00 +18°C° 0 mm 1 mps 703 mmHg 43%
    20:00 +15°C° 0 mm 1 mps 703 mmHg 46%
    21:00 +15°C° 0 mm 1 mps 703 mmHg 49%
    22:00 +14°C° 0 mm 1 mps 703 mmHg 52%
    23:00 +13°C° 0 mm 1 mps 702 mmHg 55%

    Tomorrow, 16 October, Wednesday

    Time Temperature Precipitation Wind Pressure Humidity
    00:00 +13°C° 0 mm 1 mps 702 mmHg 57%
    01:00 +13°C° 0 mm 1 mps 702 mmHg 58%
    02:00 +12°C° 0 mm 1 mps 702 mmHg 59%
    03:00 +11°C° 0 mm 0 mps 702 mmHg 59%
    04:00 +11°C° 0 mm 0 mps 702 mmHg 59%
    05:00 +10°C° 0 mm 0 mps 702 mmHg 59%
    06:00 +11°C° 0 mm 0 mps 702 mmHg 57%
    07:00 +12°C° 0 mm 0 mps 702 mmHg 55%
    08:00 +13°C° 0 mm 0 mps 703 mmHg 52%
    09:00 +16°C° 0 mm 0 mps 703 mmHg 46%
    10:00 +18°C° 0 mm 0 mps 704 mmHg 39%
    11:00 +20°C° 0 mm 0 mps 704 mmHg 33%
    12:00 +23°C° 0 mm 1 mps 704 mmHg 31%
    13:00 +24°C° 0 mm 1 mps 704 mmHg 29%
    14:00 +25°C° 0 mm 1 mps 703 mmHg 28%
    15:00 +23°C° 0 mm 1 mps 703 mmHg 32%
    16:00 +22°C° 0 mm 1 mps 703 mmHg 36%
    17:00 +21°C° 0 mm 1 mps 702 mmHg 40%
    18:00 +19°C° 0 mm 1 mps 702 mmHg 44%
    19:00 +18°C° 0 mm 1 mps 702 mmHg 47%
    20:00 +15°C° 0 mm 1 mps 702 mmHg 50%
    21:00 +15°C° 0 mm 1 mps 702 mmHg 51%
    22:00 +14°C° 0 mm 1 mps 703 mmHg 53%
    23:00 +13°C° 0 mm 0 mps 703 mmHg 54%

    Day after tomorrow, 17 October, Thursday

    Time Temperature Precipitation Wind Pressure Humidity
    00:00 +13°C° 0 mm 0 mps 703 mmHg 56%
    01:00 +12°C° 0 mm 0 mps 703 mmHg 57%
    02:00 +12°C° 0 mm 0 mps 703 mmHg 58%
    03:00 +12°C° 0 mm 0 mps 703 mmHg 59%
    04:00 +11°C° 0 mm 0 mps 703 mmHg 60%
    05:00 +11°C° 0 mm 0 mps 703 mmHg 60%
    06:00 +12°C° 0 mm 0 mps 703 mmHg 57%
    07:00 +14°C° 0 mm 1 mps 703 mmHg 55%
    08:00 +15°C° 0 mm 1 mps 703 mmHg 52%
    09:00 +19°C° 0 mm 1 mps 704 mmHg 46%
    10:00 +21°C° 0 mm 1 mps 704 mmHg 39%
    11:00 +23°C° 0 mm 1 mps 705 mmHg 33%
    12:00 +24°C° 0 mm 1 mps 705 mmHg 32%
    13:00 +24°C° 0 mm 1 mps 704 mmHg 30%
    14:00 +25°C° 0 mm 2 mps 704 mmHg 29%
    15:00 +24°C° 0 mm 2 mps 704 mmHg 33%
    16:00 +22°C° 0 mm 1 mps 704 mmHg 37%
    17:00 +21°C° 0 mm 1 mps 703 mmHg 41%
    18:00 +20°C° 0 mm 1 mps 703 mmHg 44%
    19:00 +18°C° 0 mm 1 mps 703 mmHg 48%
    20:00 +16°C° 0 mm 1 mps 703 mmHg 51%
    21:00 +15°C° 0 mm 1 mps 703 mmHg 52%
    22:00 +15°C° 0 mm 1 mps 703 mmHg 53%
    23:00 +15°C° 0 mm 1 mps 704 mmHg 55%

    18 October, Friday

    Time Temperature Precipitation Wind Pressure Humidity
    00:00 +14°C° 0 mm 1 mps 703 mmHg 56%
    01:00 +13°C° 0 mm 0 mps 703 mmHg 57%
    02:00 +12°C° 0 mm 0 mps 703 mmHg 59%
    03:00 +12°C° 0 mm 0 mps 703 mmHg 59%
    04:00 +12°C° 0 mm 0 mps 703 mmHg 59%
    05:00 +12°C° 0 mm 0 mps 703 mmHg 59%
    06:00 +13°C° 0 mm 0 mps 704 mmHg 57%
    07:00 +14°C° 0 mm 0 mps 704 mmHg 55%
    08:00 +15°C° 0 mm 0 mps 704 mmHg 53%
    09:00 +17°C° 0 mm 0 mps 704 mmHg 47%
    10:00 +19°C° 0 mm 0 mps 705 mmHg 41%
    11:00 +21°C° 0 mm 0 mps 705 mmHg 36%
    12:00 +24°C° 0 mm 1 mps 705 mmHg 34%
    13:00 +24°C° 0 mm 1 mps 705 mmHg 33%
    14:00 +25°C° 0 mm 2 mps 704 mmHg 32%
    15:00 +24°C° 0 mm 2 mps 704 mmHg 36%
    16:00 +21°C° 0 mm 2 mps 704 mmHg 40%
    17:00 +20°C° 0 mm 2 mps 703 mmHg 43%
    18:00 +20°C° 0 mm 1 mps 703 mmHg 46%
    19:00 +18°C° 0 mm 1 mps 703 mmHg 49%
    20:00 +16°C° 0 mm 1 mps 703 mmHg 52%
    21:00 +16°C° 0 mm 1 mps 703 mmHg 54%
    22:00 +15°C° 0 mm 1 mps 703 mmHg 55%
    23:00 +15°C° 0 mm 1 mps 703 mmHg 56%

    19 October, Saturday

    Time Temperature Precipitation Wind Pressure Humidity
    00:00 +14°C° 0 mm 1 mps 703 mmHg 57%
    01:00 +14°C° 0 mm 1 mps 703 mmHg 58%
    02:00 +12°C° 0 mm 0 mps 703 mmHg 59%
    03:00 +12°C° 0 mm 0 mps 703 mmHg 60%
    04:00 +12°C° 0 mm 0 mps 703 mmHg 61%
    05:00 +12°C° 0 mm 0 mps 703 mmHg 62%
    06:00 +12°C° 0 mm 0 mps 703 mmHg 60%
    07:00 +13°C° 0 mm 0 mps 703 mmHg 57%
    08:00 +14°C° 0 mm 0 mps 704 mmHg 55%
    09:00 +16°C° 0 mm 0 mps 704 mmHg 49%
    10:00 +18°C° 0 mm 0 mps 704 mmHg 43%
    11:00 +22°C° 0 mm 1 mps 705 mmHg 37%
    12:00 +23°C° 0 mm 1 mps 705 mmHg 35%
    13:00 +24°C° 0 mm 1 mps 704 mmHg 33%
    14:00 +24°C° 0 mm 2 mps 704 mmHg 30%
    15:00 +23°C° 0 mm 2 mps 704 mmHg 33%
    16:00 +21°C° 0 mm 2 mps 704 mmHg 37%
    17:00 +20°C° 0 mm 2 mps 703 mmHg 40%
    18:00 +19°C° 0 mm 1 mps 703 mmHg 42%
    19:00 +18°C° 0 mm 1 mps 703 mmHg 45%
    20:00 +16°C° 0 mm 1 mps 703 mmHg 47%
    21:00 +15°C° 0 mm 1 mps 703 mmHg 49%
    22:00 +15°C° 0 mm 1 mps 704 mmHg 50%
    23:00 +14°C° 0 mm 1 mps 704 mmHg 52%

    20 October, Sunday

    Time Temperature Precipitation Wind Pressure Humidity
    00:00 +14°C° 0 mm 1 mps 704 mmHg 54%
    01:00 +13°C° 0 mm 1 mps 703 mmHg 55%
    02:00 +13°C° 0 mm 1 mps 703 mmHg 57%
    03:00 +13°C° 0 mm 1 mps 703 mmHg 58%
    04:00 +11°C° 0 mm 0 mps 703 mmHg 58%
    05:00 +11°C° 0 mm 0 mps 703 mmHg 59%
    06:00 +12°C° 0 mm 0 mps 703 mmHg 57%
    07:00 +13°C° 0 mm 0 mps 704 mmHg 54%
    08:00 +14°C° 0 mm 0 mps 704 mmHg 52%
    09:00 +16°C° 0 mm 0 mps 705 mmHg 46%
    10:00 +20°C° 0 mm 1 mps 705 mmHg 40%
    11:00 +22°C° 0 mm 1 mps 705 mmHg 34%
    12:00 +23°C° 0 mm 1 mps 705 mmHg 32%
    13:00 +24°C° 0 mm 1 mps 705 mmHg 30%
    14:00 +24°C° 0 mm 2 mps 705 mmHg 28%
    15:00 +23°C° 0 mm 2 mps 705 mmHg 32%
    16:00 +21°C° 0 mm 2 mps 704 mmHg 36%
    17:00 +21°C° 0 mm 1 mps 704 mmHg 40%
    18:00 +19°C° 0 mm 1 mps 704 mmHg 43%
    19:00 +18°C° 0 mm 1 mps 704 mmHg 47%
    20:00 +16°C° 0 mm 1 mps 704 mmHg 50%
    21:00 +15°C° 0 mm 1 mps 705 mmHg 53%
    22:00 +15°C° 0 mm 1 mps 705 mmHg 56%
    23:00 +14°C° 0 mm 1 mps 705 mmHg 58%
    Show more